Location: Krasnoyarskiy Pitomnik
(51.1333°N, 71.6167°E)
Time: 10:19:16
(UTC+00:00)

Cosmos 407 Rocket - Pass Details

Date: 22 October 2021
Orbit: 743 x 787 km, 74.0° (Epoch: 06 December)

Event Time Altitude Azimuth Distance (km) Brightness Sun altitude
Rises 14:24:42 0° 336° (NNW) 3,265 7.2 -22.3°
Reaches altitude 10° 14:27:06 10° 339° (NNW) 2,340 6.4 -22.7°
Maximum altitude 14:32:25 68° 63° (ENE) 843 3.4 -23.5°
Enters shadow 14:33:04 62° 105° (ESE) 884 3.4 -23.6°
